TimePST,TemperatureF,Dew PointF,Humidity,Sea Level PressureIn,VisibilityMPH,Wind Direction,Wind SpeedMPH,Gust SpeedMPH,PrecipitationIn,Events,Conditions,WindDirDegrees,DateUTC
12:53 AM,44.1,33.1,65,29.88,10.0,WNW,4.6,-,N/A,,Clear,290,2013-02-09 08:53:00
1:53 AM,44.1,32.0,63,29.88,10.0,WSW,6.9,-,N/A,,Clear,240,2013-02-09 09:53:00
2:53 AM,43.0,32.0,65,29.88,10.0,West,8.1,-,N/A,,Clear,260,2013-02-09 10:53:00
3:53 AM,46.0,34.0,63,29.88,10.0,WSW,11.5,-,N/A,,Clear,250,2013-02-09 11:53:00
4:53 AM,43.0,33.1,68,29.89,10.0,West,6.9,-,N/A,,Clear,280,2013-02-09 12:53:00
5:53 AM,39.9,32.0,73,29.91,10.0,West,5.8,-,N/A,,Clear,280,2013-02-09 13:53:00
6:53 AM,42.1,30.9,65,29.93,10.0,WNW,4.6,-,N/A,,Clear,300,2013-02-09 14:53:00
7:53 AM,48.0,35.1,61,29.96,10.0,West,6.9,-,N/A,,Clear,280,2013-02-09 15:53:00
8:53 AM,53.1,33.1,47,29.98,10.0,West,11.5,-,N/A,,Clear,280,2013-02-09 16:53:00
9:53 AM,57.0,32.0,39,29.99,10.0,West,20.7,25.3,N/A,,Clear,260,2013-02-09 17:53:00
10:53 AM,59.0,30.0,33,29.99,10.0,West,20.7,28.8,N/A,,Clear,260,2013-02-09 18:53:00
11:53 AM,61.0,28.0,29,29.99,10.0,West,16.1,23.0,N/A,,Partly Cloudy,280,2013-02-09 19:53:00
12:53 PM,62.1,28.9,29,29.97,10.0,WNW,13.8,23.0,N/A,,Clear,300,2013-02-09 20:53:00
1:53 PM,62.1,28.9,29,29.97,10.0,WNW,12.7,19.6,N/A,,Scattered Clouds,290,2013-02-09 21:53:00
2:53 PM,63.0,28.9,28,29.96,10.0,West,13.8,24.2,N/A,,Clear,260,2013-02-09 22:53:00
3:53 PM,60.1,30.9,33,29.97,10.0,West,6.9,-,N/A,,Clear,270,2013-02-09 23:53:00
4:53 PM,57.0,30.9,37,29.97,10.0,West,9.2,-,N/A,,Clear,280,2013-02-10 00:53:00
5:53 PM,54.0,34.0,47,29.98,10.0,WSW,9.2,-,N/A,,Clear,250,2013-02-10 01:53:00
6:53 PM,51.1,35.1,54,30.00,10.0,WNW,6.9,-,N/A,,Clear,290,2013-02-10 02:53:00
7:53 PM,48.9,35.1,59,30.01,10.0,WSW,6.9,-,N/A,,Clear,250,2013-02-10 03:53:00
8:53 PM,50.0,33.1,52,30.03,10.0,WSW,9.2,-,N/A,,Clear,250,2013-02-10 04:53:00
9:53 PM,48.9,34.0,56,30.04,10.0,West,10.4,-,N/A,,Clear,270,2013-02-10 05:53:00
10:53 PM,46.0,33.1,61,30.05,10.0,West,8.1,-,N/A,,Clear,260,2013-02-10 06:53:00
11:53 PM,46.9,33.1,59,30.06,10.0,WSW,9.2,-,N/A,,Clear,240,2013-02-10 07:53:00